Volver al catálogo

THORAD AGENA D DEB

ActivoPO
NORAD 4928·DEBRIS·🇺🇸 United States

Lanzado Apr 8, 1970 desde Vandenberg Space Force Base

Loading…

Próximos Pases

TLE

Source: Space-Track
1 04928U 70025FU  26229.71842647  .00001638  00000-0  55163-2 0  9997
2 04928  99.7492 134.9165 0432359 180.2666 209.3165 12.73206050606733

Sigue THORAD AGENA D DEB en tiempo real con AllMySat

Download on the App Store